Year,Month,Day,Hour,Minute,Value (Times are PST for windgust in km/hr)
2014,10,27,00,02,1.60
2014,10,27,00,07,3.20
2014,10,27,00,14,6.40
2014,10,27,00,16,3.20
2014,10,27,00,17,1.60
2014,10,27,00,19,1.60
2014,10,27,00,20,6.40
2014,10,27,00,26,3.20
2014,10,27,00,41,3.20
2014,10,27,00,52,4.80
2014,10,27,00,53,3.20
2014,10,27,00,54,4.80
2014,10,27,00,55,8.10
2014,10,27,00,56,11.30
2014,10,27,00,57,9.60
2014,10,27,00,58,6.40
2014,10,27,01,08,3.20
2014,10,27,01,10,1.60
2014,10,27,01,18,1.60
2014,10,27,03,02,3.20
2014,10,27,03,03,3.20
2014,10,27,03,27,1.60
2014,10,27,04,33,1.60
2014,10,27,04,34,4.80
2014,10,27,04,49,1.60
2014,10,27,04,57,3.20
2014,10,27,04,58,3.20
2014,10,27,05,00,4.80
2014,10,27,05,02,1.60
2014,10,27,05,19,3.20
2014,10,27,05,20,6.40
2014,10,27,05,21,9.60
2014,10,27,05,22,8.10
2014,10,27,05,23,4.80
2014,10,27,05,24,9.60
2014,10,27,05,25,9.60
2014,10,27,05,26,4.80
2014,10,27,05,27,4.80
2014,10,27,05,29,3.20
2014,10,27,05,30,4.80
2014,10,27,05,31,6.40
2014,10,27,05,32,4.80
2014,10,27,05,36,1.60
2014,10,27,05,37,3.20
2014,10,27,05,38,3.20
2014,10,27,05,39,4.80
2014,10,27,05,40,4.80
2014,10,27,05,59,1.60
2014,10,27,06,11,4.80
2014,10,27,06,12,4.80
2014,10,27,06,13,1.60
2014,10,27,06,15,1.60
2014,10,27,06,18,4.80
2014,10,27,06,19,6.40
2014,10,27,06,20,4.80
2014,10,27,06,21,3.20
2014,10,27,06,22,6.40
2014,10,27,06,27,1.60
2014,10,27,06,29,3.20
2014,10,27,06,30,4.80
2014,10,27,06,34,3.20
2014,10,27,06,37,6.40
2014,10,27,06,38,3.20
2014,10,27,06,39,6.40
2014,10,27,06,40,4.80
2014,10,27,06,41,1.60
2014,10,27,07,01,4.80
2014,10,27,07,02,3.20
2014,10,27,07,06,6.40
2014,10,27,07,07,6.40
2014,10,27,07,08,3.20
2014,10,27,07,20,4.80
2014,10,27,07,21,3.20
2014,10,27,07,24,1.60
2014,10,27,07,30,6.40
2014,10,27,07,31,3.20
2014,10,27,07,33,8.10
2014,10,27,07,34,8.10
2014,10,27,07,35,6.40
2014,10,27,07,36,9.60
2014,10,27,07,37,9.60
2014,10,27,07,38,11.30
2014,10,27,07,39,8.10
2014,10,27,07,40,6.40
2014,10,27,07,41,6.40
2014,10,27,07,42,6.40
2014,10,27,07,43,8.10
2014,10,27,07,44,6.40
2014,10,27,07,45,6.40
2014,10,27,07,46,4.80
2014,10,27,07,47,8.10
2014,10,27,07,48,3.20
2014,10,27,07,53,4.80
2014,10,27,07,59,9.60
2014,10,27,08,00,8.10
2014,10,27,08,01,9.60
2014,10,27,08,02,11.30
2014,10,27,08,03,6.40
2014,10,27,08,04,11.30
2014,10,27,08,05,8.10
2014,10,27,08,06,8.10
2014,10,27,08,07,9.60
2014,10,27,08,08,8.10
2014,10,27,08,09,6.40
2014,10,27,08,21,6.40
2014,10,27,08,22,3.20
2014,10,27,08,23,9.60
2014,10,27,08,24,4.80
2014,10,27,08,25,1.60
2014,10,27,08,26,8.10
2014,10,27,08,27,11.30
2014,10,27,08,28,8.10
2014,10,27,08,29,6.40
2014,10,27,08,30,11.30
2014,10,27,08,31,11.30
2014,10,27,08,32,8.10
2014,10,27,08,33,8.10
2014,10,27,08,34,9.60
2014,10,27,08,35,11.30
2014,10,27,08,36,6.40
2014,10,27,08,37,1.60
2014,10,27,08,38,9.60
2014,10,27,08,39,11.30
2014,10,27,08,40,8.10
2014,10,27,08,41,8.10
2014,10,27,08,42,9.60
2014,10,27,08,43,14.50
2014,10,27,08,44,9.60
2014,10,27,08,45,11.30
2014,10,27,08,46,6.40
2014,10,27,08,47,11.30
2014,10,27,08,48,8.10
2014,10,27,08,49,8.10
2014,10,27,08,50,6.40
2014,10,27,08,51,14.50
2014,10,27,08,52,14.50
2014,10,27,08,53,8.10
2014,10,27,08,54,11.30
2014,10,27,08,57,11.30
2014,10,27,08,58,11.30
2014,10,27,08,59,8.10
2014,10,27,09,01,8.10
2014,10,27,09,02,9.60
2014,10,27,09,03,9.60
2014,10,27,09,04,9.60
2014,10,27,09,05,9.60
2014,10,27,09,06,11.30
2014,10,27,09,07,8.10
2014,10,27,09,08,8.10
2014,10,27,09,09,6.40
2014,10,27,09,10,8.10
2014,10,27,09,11,6.40
2014,10,27,09,12,4.80
2014,10,27,09,13,4.80
2014,10,27,09,14,8.10
2014,10,27,09,15,6.40
2014,10,27,09,17,4.80
2014,10,27,09,18,4.80
2014,10,27,09,19,8.10
2014,10,27,09,20,6.40
2014,10,27,09,21,8.10
2014,10,27,09,22,4.80
2014,10,27,09,23,8.10
2014,10,27,09,24,6.40
2014,10,27,09,25,6.40
2014,10,27,09,26,6.40
2014,10,27,09,27,4.80
2014,10,27,09,28,4.80
2014,10,27,09,29,4.80
2014,10,27,09,30,4.80
2014,10,27,09,31,6.40
2014,10,27,09,32,9.60
2014,10,27,09,33,6.40
2014,10,27,09,34,9.60
2014,10,27,09,35,8.10
2014,10,27,09,36,9.60
2014,10,27,09,37,8.10
2014,10,27,09,38,9.60
2014,10,27,09,39,9.60
2014,10,27,09,40,6.40
2014,10,27,09,46,1.60
2014,10,27,09,49,1.60
2014,10,27,09,50,4.80
2014,10,27,09,51,8.10
2014,10,27,09,52,8.10
2014,10,27,09,53,8.10
2014,10,27,09,54,8.10
2014,10,27,09,55,12.90
2014,10,27,09,56,12.90
2014,10,27,09,57,11.30
2014,10,27,09,58,14.50
2014,10,27,09,59,11.30
2014,10,27,10,00,14.50
2014,10,27,10,01,16.10
2014,10,27,10,02,14.50
2014,10,27,10,03,17.70
2014,10,27,10,04,11.30
2014,10,27,10,05,14.50
2014,10,27,10,06,17.70
2014,10,27,10,07,12.90
2014,10,27,10,08,9.60
2014,10,27,10,09,9.60
2014,10,27,10,10,12.90
2014,10,27,10,11,16.10
2014,10,27,10,12,9.60
2014,10,27,10,13,14.50
2014,10,27,10,14,17.70
2014,10,27,10,15,16.10
2014,10,27,10,16,16.10
2014,10,27,10,17,11.30
2014,10,27,10,18,14.50
2014,10,27,10,19,8.10
2014,10,27,10,20,9.60
2014,10,27,10,21,4.80
2014,10,27,10,22,11.30
2014,10,27,10,23,11.30
2014,10,27,10,24,14.50
2014,10,27,10,25,8.10
2014,10,27,10,26,6.40
2014,10,27,10,27,16.10
2014,10,27,10,28,14.50
2014,10,27,10,29,14.50
2014,10,27,10,30,14.50
2014,10,27,10,31,17.70
2014,10,27,10,32,17.70
2014,10,27,10,33,20.90
2014,10,27,10,34,16.10
2014,10,27,10,35,8.10
2014,10,27,10,36,19.30
2014,10,27,10,37,19.30
2014,10,27,10,38,16.10
2014,10,27,10,39,19.30
2014,10,27,10,40,16.10
2014,10,27,10,41,20.90
2014,10,27,10,42,12.90
2014,10,27,10,43,17.70
2014,10,27,10,44,14.50
2014,10,27,10,45,14.50
2014,10,27,10,46,11.30
2014,10,27,10,47,20.90
2014,10,27,10,48,17.70
2014,10,27,10,49,16.10
2014,10,27,10,50,17.70
2014,10,27,10,51,12.90
2014,10,27,10,52,19.30
2014,10,27,10,53,20.90
2014,10,27,10,54,19.30
2014,10,27,10,55,20.90
2014,10,27,10,56,6.40
2014,10,27,10,57,11.30
2014,10,27,10,58,17.70
2014,10,27,10,59,27.40
2014,10,27,11,00,24.20
2014,10,27,11,01,16.10
2014,10,27,11,02,14.50
2014,10,27,11,03,16.10
2014,10,27,11,04,24.20
2014,10,27,11,05,27.40
2014,10,27,11,06,22.50
2014,10,27,11,07,19.30
2014,10,27,11,08,20.90
2014,10,27,11,09,25.70
2014,10,27,11,10,19.30
2014,10,27,11,11,22.50
2014,10,27,11,12,16.10
2014,10,27,11,13,17.70
2014,10,27,11,14,24.20
2014,10,27,11,15,19.30
2014,10,27,11,16,17.70
2014,10,27,11,17,24.20
2014,10,27,11,18,14.50
2014,10,27,11,19,16.10
2014,10,27,11,20,12.90
2014,10,27,11,21,14.50
2014,10,27,11,22,20.90
2014,10,27,11,23,33.80
2014,10,27,11,24,19.30
2014,10,27,11,25,17.70
2014,10,27,11,26,16.10
2014,10,27,11,27,17.70
2014,10,27,11,28,14.50
2014,10,27,11,29,19.30
2014,10,27,11,30,17.70
2014,10,27,11,31,22.50
2014,10,27,11,32,24.20
2014,10,27,11,33,27.40
2014,10,27,11,34,25.70
2014,10,27,11,35,24.20
2014,10,27,11,36,16.10
2014,10,27,11,37,19.30
2014,10,27,11,38,11.30
2014,10,27,11,39,14.50
2014,10,27,11,40,22.50
2014,10,27,11,41,22.50
2014,10,27,11,42,27.40
2014,10,27,11,43,20.90
2014,10,27,11,44,19.30
2014,10,27,11,45,16.10
2014,10,27,11,46,30.60
2014,10,27,11,47,27.40
2014,10,27,11,48,29.00
2014,10,27,11,49,30.60
2014,10,27,11,50,25.70
2014,10,27,11,51,22.50
2014,10,27,11,52,14.50
2014,10,27,11,53,20.90
2014,10,27,11,54,19.30
2014,10,27,11,55,20.90
2014,10,27,11,56,24.20
2014,10,27,11,57,24.20
2014,10,27,11,58,22.50
2014,10,27,11,59,17.70
2014,10,27,12,00,22.50
2014,10,27,12,01,24.20
2014,10,27,12,02,19.30
2014,10,27,12,03,19.30
2014,10,27,12,04,22.50
2014,10,27,12,05,25.70
2014,10,27,12,06,20.90
2014,10,27,12,07,19.30
2014,10,27,12,08,24.20
2014,10,27,12,09,17.70
2014,10,27,12,10,22.50
2014,10,27,12,11,17.70
2014,10,27,12,12,12.90
2014,10,27,12,13,16.10
2014,10,27,12,14,25.70
2014,10,27,12,15,27.40
2014,10,27,12,16,24.20
2014,10,27,12,17,20.90
2014,10,27,12,18,27.40
2014,10,27,12,19,22.50
2014,10,27,12,20,25.70
2014,10,27,12,21,25.70
2014,10,27,12,22,22.50
2014,10,27,12,23,20.90
2014,10,27,12,24,17.70
2014,10,27,12,25,19.30
2014,10,27,12,26,14.50
2014,10,27,12,27,24.20
2014,10,27,12,28,16.10
2014,10,27,12,29,20.90
2014,10,27,12,30,19.30
2014,10,27,12,31,19.30
2014,10,27,12,32,20.90
2014,10,27,12,33,14.50
2014,10,27,12,34,20.90
2014,10,27,12,35,17.70
2014,10,27,12,36,19.30
2014,10,27,12,37,20.90
2014,10,27,12,38,24.20
2014,10,27,12,39,17.70
2014,10,27,12,40,19.30
2014,10,27,12,41,19.30
2014,10,27,12,42,17.70
2014,10,27,12,43,8.10
2014,10,27,12,44,11.30
2014,10,27,12,45,17.70
2014,10,27,12,46,19.30
2014,10,27,12,47,19.30
2014,10,27,12,48,25.70
2014,10,27,12,49,20.90
2014,10,27,12,50,30.60
2014,10,27,12,51,19.30
2014,10,27,12,52,25.70
2014,10,27,12,53,17.70
2014,10,27,12,54,32.20
2014,10,27,12,55,19.30
2014,10,27,12,56,22.50
2014,10,27,12,57,25.70
2014,10,27,12,58,17.70
2014,10,27,12,59,22.50
2014,10,27,13,00,29.00
2014,10,27,13,01,22.50
2014,10,27,13,02,29.00
2014,10,27,13,03,29.00
2014,10,27,13,04,20.90
2014,10,27,13,05,22.50
2014,10,27,13,06,19.30
2014,10,27,13,07,19.30
2014,10,27,13,08,37.00
2014,10,27,13,09,20.90
2014,10,27,13,10,16.10
2014,10,27,13,11,20.90
2014,10,27,13,12,20.90
2014,10,27,13,13,16.10
2014,10,27,13,14,20.90
2014,10,27,13,15,20.90
2014,10,27,13,16,12.90
2014,10,27,13,17,19.30
2014,10,27,13,18,14.50
2014,10,27,13,19,11.30
2014,10,27,13,20,17.70
2014,10,27,13,21,33.80
2014,10,27,13,22,20.90
2014,10,27,13,23,25.70
2014,10,27,13,24,22.50
2014,10,27,13,25,30.60
2014,10,27,13,26,25.70
2014,10,27,13,27,24.20
2014,10,27,13,28,19.30
2014,10,27,13,29,27.40
2014,10,27,13,30,17.70
2014,10,27,13,31,14.50
2014,10,27,13,32,17.70
2014,10,27,13,33,17.70
2014,10,27,13,34,19.30
2014,10,27,13,35,16.10
2014,10,27,13,36,11.30
2014,10,27,13,37,6.40
2014,10,27,13,38,14.50
2014,10,27,13,39,24.20
2014,10,27,13,40,16.10
2014,10,27,13,41,16.10
2014,10,27,13,42,19.30
2014,10,27,13,43,9.60
2014,10,27,13,44,17.70
2014,10,27,13,45,24.20
2014,10,27,13,46,16.10
2014,10,27,13,47,20.90
2014,10,27,13,48,17.70
2014,10,27,13,49,11.30
2014,10,27,13,50,17.70
2014,10,27,13,51,14.50
2014,10,27,13,52,9.60
2014,10,27,13,53,17.70
2014,10,27,13,54,16.10
2014,10,27,13,55,9.60
2014,10,27,13,56,11.30
2014,10,27,13,57,20.90
2014,10,27,13,58,12.90
2014,10,27,13,59,19.30
2014,10,27,14,00,11.30
2014,10,27,14,01,9.60
2014,10,27,14,02,17.70
2014,10,27,14,03,19.30
2014,10,27,14,04,14.50
2014,10,27,14,05,19.30
2014,10,27,14,06,17.70
2014,10,27,14,07,22.50
2014,10,27,14,08,17.70
2014,10,27,14,09,25.70
2014,10,27,14,10,24.20
2014,10,27,14,11,24.20
2014,10,27,14,12,19.30
2014,10,27,14,13,17.70
2014,10,27,14,14,27.40
2014,10,27,14,15,11.30
2014,10,27,14,16,27.40
2014,10,27,14,17,17.70
2014,10,27,14,18,9.60
2014,10,27,14,19,12.90
2014,10,27,14,20,11.30
2014,10,27,14,21,16.10
2014,10,27,14,22,16.10
2014,10,27,14,23,16.10
2014,10,27,14,24,16.10
2014,10,27,14,25,22.50
2014,10,27,14,26,17.70
2014,10,27,14,27,19.30
2014,10,27,14,28,20.90
2014,10,27,14,29,27.40
2014,10,27,14,30,22.50
2014,10,27,14,31,20.90
2014,10,27,14,32,22.50
2014,10,27,14,33,19.30
2014,10,27,14,34,24.20
2014,10,27,14,35,27.40
2014,10,27,14,36,19.30
2014,10,27,14,37,25.70
2014,10,27,14,38,19.30
2014,10,27,14,39,22.50
2014,10,27,14,40,22.50
2014,10,27,14,41,22.50
2014,10,27,14,42,19.30
2014,10,27,14,43,25.70
2014,10,27,14,44,16.10
2014,10,27,14,45,24.20
2014,10,27,14,46,25.70
2014,10,27,14,47,32.20
2014,10,27,14,48,25.70
2014,10,27,14,49,27.40
2014,10,27,14,50,25.70
2014,10,27,14,51,17.70
2014,10,27,14,52,12.90
2014,10,27,14,53,11.30
2014,10,27,14,54,29.00
2014,10,27,14,55,22.50
2014,10,27,14,56,19.30
2014,10,27,14,57,16.10
2014,10,27,14,58,20.90
2014,10,27,14,59,25.70
2014,10,27,15,00,27.40
2014,10,27,15,01,24.20
2014,10,27,15,02,25.70
2014,10,27,15,03,24.20
2014,10,27,15,04,19.30
2014,10,27,15,05,17.70
2014,10,27,15,06,22.50
2014,10,27,15,07,22.50
2014,10,27,15,08,19.30
2014,10,27,15,09,29.00
2014,10,27,15,10,22.50
2014,10,27,15,11,30.60
2014,10,27,15,12,20.90
2014,10,27,15,13,22.50
2014,10,27,15,14,22.50
2014,10,27,15,15,22.50
2014,10,27,15,16,16.10
2014,10,27,15,17,16.10
2014,10,27,15,18,19.30
2014,10,27,15,19,19.30
2014,10,27,15,20,17.70
2014,10,27,15,21,11.30
2014,10,27,15,22,16.10
2014,10,27,15,23,9.60
2014,10,27,15,24,9.60
2014,10,27,15,25,19.30
2014,10,27,15,26,24.20
2014,10,27,15,27,22.50
2014,10,27,15,28,29.00
2014,10,27,15,29,24.20
2014,10,27,15,30,16.10
2014,10,27,15,31,20.90
2014,10,27,15,32,17.70
2014,10,27,15,33,22.50
2014,10,27,15,34,19.30
2014,10,27,15,35,22.50
2014,10,27,15,36,20.90
2014,10,27,15,37,27.40
2014,10,27,15,38,25.70
2014,10,27,15,39,24.20
2014,10,27,15,40,17.70
2014,10,27,15,41,17.70
2014,10,27,15,42,17.70
2014,10,27,15,43,20.90
2014,10,27,15,44,20.90
2014,10,27,15,45,14.50
2014,10,27,15,46,19.30
2014,10,27,15,47,16.10
2014,10,27,15,48,14.50
2014,10,27,15,49,29.00
2014,10,27,15,50,19.30
2014,10,27,15,51,24.20
2014,10,27,15,52,20.90
2014,10,27,15,53,20.90
2014,10,27,15,54,17.70
2014,10,27,15,55,35.40
2014,10,27,15,56,24.20
2014,10,27,15,57,30.60
2014,10,27,15,58,19.30
2014,10,27,15,59,30.60
2014,10,27,16,00,24.20
2014,10,27,16,01,22.50
2014,10,27,16,02,22.50
2014,10,27,16,03,17.70
2014,10,27,16,04,20.90
2014,10,27,16,05,25.70
2014,10,27,16,06,20.90
2014,10,27,16,07,24.20
2014,10,27,16,08,16.10
2014,10,27,16,09,17.70
2014,10,27,16,10,16.10
2014,10,27,16,11,19.30
2014,10,27,16,12,20.90
2014,10,27,16,13,27.40
2014,10,27,16,14,19.30
2014,10,27,16,15,17.70
2014,10,27,16,16,19.30
2014,10,27,16,17,25.70
2014,10,27,16,18,27.40
2014,10,27,16,19,25.70
2014,10,27,16,20,27.40
2014,10,27,16,21,22.50
2014,10,27,16,22,22.50
2014,10,27,16,23,19.30
2014,10,27,16,24,24.20
2014,10,27,16,25,27.40
2014,10,27,16,26,20.90
2014,10,27,16,27,22.50
2014,10,27,16,28,22.50
2014,10,27,16,29,32.20
2014,10,27,16,30,30.60
2014,10,27,16,31,24.20
2014,10,27,16,32,17.70
2014,10,27,16,33,20.90
2014,10,27,16,34,25.70
2014,10,27,16,35,32.20
2014,10,27,16,36,30.60
2014,10,27,16,37,32.20
2014,10,27,16,38,27.40
2014,10,27,16,39,27.40
2014,10,27,16,40,24.20
2014,10,27,16,41,32.20
2014,10,27,16,42,24.20
2014,10,27,16,43,37.00
2014,10,27,16,44,37.00
2014,10,27,16,45,32.20
2014,10,27,16,46,24.20
2014,10,27,16,47,29.00
2014,10,27,16,48,25.70
2014,10,27,16,49,24.20
2014,10,27,16,50,22.50
2014,10,27,16,51,30.60
2014,10,27,16,52,20.90
2014,10,27,16,53,25.70
2014,10,27,16,54,33.80
2014,10,27,16,55,30.60
2014,10,27,16,56,40.20
2014,10,27,16,57,24.20
2014,10,27,16,58,32.20
2014,10,27,16,59,29.00
2014,10,27,17,00,22.50
2014,10,27,17,01,30.60
2014,10,27,17,02,27.40
2014,10,27,17,03,24.20
2014,10,27,17,04,32.20
2014,10,27,17,05,38.60
2014,10,27,17,06,29.00
2014,10,27,17,07,19.30
2014,10,27,17,08,27.40
2014,10,27,17,09,20.90
2014,10,27,17,10,19.30
2014,10,27,17,11,25.70
2014,10,27,17,12,29.00
2014,10,27,17,13,22.50
2014,10,27,17,14,17.70
2014,10,27,17,15,37.00
2014,10,27,17,16,37.00
2014,10,27,17,17,30.60
2014,10,27,17,18,29.00
2014,10,27,17,19,33.80
2014,10,27,17,20,29.00
2014,10,27,17,21,29.00
2014,10,27,17,22,29.00
2014,10,27,17,23,20.90
2014,10,27,17,24,19.30
2014,10,27,17,25,30.60
2014,10,27,17,26,32.20
2014,10,27,17,27,19.30
2014,10,27,17,28,25.70
2014,10,27,17,29,32.20
2014,10,27,17,30,30.60
2014,10,27,17,31,27.40
2014,10,27,17,32,22.50
2014,10,27,17,33,24.20
2014,10,27,17,34,35.40
2014,10,27,17,35,20.90
2014,10,27,17,36,30.60
2014,10,27,17,37,30.60
2014,10,27,17,38,25.70
2014,10,27,17,39,33.80
2014,10,27,17,40,22.50
2014,10,27,17,41,25.70
2014,10,27,17,42,32.20
2014,10,27,17,43,17.70
2014,10,27,17,44,19.30
2014,10,27,17,45,25.70
2014,10,27,17,46,30.60
2014,10,27,17,47,22.50
2014,10,27,17,48,32.20
2014,10,27,17,49,33.80
2014,10,27,17,50,27.40
2014,10,27,17,51,22.50
2014,10,27,17,52,20.90
2014,10,27,17,53,27.40
2014,10,27,17,54,25.70
2014,10,27,17,55,27.40
2014,10,27,17,56,22.50
2014,10,27,17,57,32.20
2014,10,27,17,58,29.00
2014,10,27,17,59,25.70
2014,10,27,18,00,22.50
2014,10,27,18,01,30.60
2014,10,27,18,02,30.60
2014,10,27,18,03,25.70
2014,10,27,18,04,24.20
2014,10,27,18,05,30.60
2014,10,27,18,06,20.90
2014,10,27,18,07,32.20
2014,10,27,18,08,32.20
2014,10,27,18,09,32.20
2014,10,27,18,10,37.00
2014,10,27,18,11,19.30
2014,10,27,18,12,29.00
2014,10,27,18,13,27.40
2014,10,27,18,14,30.60
2014,10,27,18,15,20.90
2014,10,27,18,16,25.70
2014,10,27,18,17,22.50
2014,10,27,18,18,32.20
2014,10,27,18,19,24.20
2014,10,27,18,20,24.20
2014,10,27,18,21,24.20
2014,10,27,18,22,25.70
2014,10,27,18,23,27.40
2014,10,27,18,24,25.70
2014,10,27,18,25,20.90
2014,10,27,18,26,32.20
2014,10,27,18,27,30.60
2014,10,27,18,28,20.90
2014,10,27,18,29,24.20
2014,10,27,18,30,25.70
2014,10,27,18,31,19.30
2014,10,27,18,32,25.70
2014,10,27,18,33,17.70
2014,10,27,18,34,22.50
2014,10,27,18,35,22.50
2014,10,27,18,36,20.90
2014,10,27,18,37,27.40
2014,10,27,18,38,22.50
2014,10,27,18,39,17.70
2014,10,27,18,40,14.50
2014,10,27,18,41,19.30
2014,10,27,18,42,20.90
2014,10,27,18,43,20.90
2014,10,27,18,44,9.60
2014,10,27,18,45,20.90
2014,10,27,18,46,14.50
2014,10,27,18,47,16.10
2014,10,27,18,48,9.60
2014,10,27,18,49,22.50
2014,10,27,18,50,19.30
2014,10,27,18,51,20.90
2014,10,27,18,52,17.70
2014,10,27,18,53,19.30
2014,10,27,18,54,16.10
2014,10,27,18,55,25.70
2014,10,27,18,56,19.30
2014,10,27,18,57,20.90
2014,10,27,18,58,20.90
2014,10,27,18,59,20.90
2014,10,27,19,00,20.90
2014,10,27,19,01,9.60
2014,10,27,19,02,9.60
2014,10,27,19,03,16.10
2014,10,27,19,04,14.50
2014,10,27,19,05,9.60
2014,10,27,19,06,11.30
2014,10,27,19,07,11.30
2014,10,27,19,08,11.30
2014,10,27,19,09,22.50
2014,10,27,19,10,17.70
2014,10,27,19,11,17.70
2014,10,27,19,12,14.50
2014,10,27,19,13,9.60
2014,10,27,19,14,17.70
2014,10,27,19,15,17.70
2014,10,27,19,16,11.30
2014,10,27,19,17,20.90
2014,10,27,19,18,14.50
2014,10,27,19,19,20.90
2014,10,27,19,20,19.30
2014,10,27,19,21,16.10
2014,10,27,19,22,24.20
2014,10,27,19,23,25.70
2014,10,27,19,24,16.10
2014,10,27,19,25,17.70
2014,10,27,19,26,14.50
2014,10,27,19,27,16.10
2014,10,27,19,28,22.50
2014,10,27,19,29,22.50
2014,10,27,19,30,24.20
2014,10,27,19,31,20.90
2014,10,27,19,32,14.50
2014,10,27,19,33,25.70
2014,10,27,19,34,9.60
2014,10,27,19,35,14.50
2014,10,27,19,36,20.90
2014,10,27,19,37,17.70
2014,10,27,19,38,14.50
2014,10,27,19,39,24.20
2014,10,27,19,40,20.90
2014,10,27,19,41,27.40
2014,10,27,19,42,22.50
2014,10,27,19,43,17.70
2014,10,27,19,44,20.90
2014,10,27,19,45,25.70
2014,10,27,19,46,27.40
2014,10,27,19,47,22.50
2014,10,27,19,48,27.40
2014,10,27,19,49,29.00
2014,10,27,19,50,19.30
2014,10,27,19,51,27.40
2014,10,27,19,52,22.50
2014,10,27,19,53,29.00
2014,10,27,19,54,22.50
2014,10,27,19,55,30.60
2014,10,27,19,56,20.90
2014,10,27,19,57,30.60
2014,10,27,19,58,29.00
2014,10,27,19,59,20.90
2014,10,27,20,00,22.50
2014,10,27,20,01,22.50
2014,10,27,20,02,19.30
2014,10,27,20,03,25.70
2014,10,27,20,04,17.70
2014,10,27,20,05,25.70
2014,10,27,20,06,22.50
2014,10,27,20,07,19.30
2014,10,27,20,08,22.50
2014,10,27,20,09,22.50
2014,10,27,20,10,24.20
2014,10,27,20,11,14.50
2014,10,27,20,12,29.00
2014,10,27,20,13,29.00
2014,10,27,20,14,30.60
2014,10,27,20,15,17.70
2014,10,27,20,16,25.70
2014,10,27,20,17,17.70
2014,10,27,20,18,19.30
2014,10,27,20,19,29.00
2014,10,27,20,20,19.30
2014,10,27,20,21,22.50
2014,10,27,20,22,22.50
2014,10,27,20,23,22.50
2014,10,27,20,24,27.40
2014,10,27,20,25,19.30
2014,10,27,20,26,19.30
2014,10,27,20,27,22.50
2014,10,27,20,28,19.30
2014,10,27,20,29,17.70
2014,10,27,20,30,17.70
2014,10,27,20,31,19.30
2014,10,27,20,32,19.30
2014,10,27,20,33,20.90
2014,10,27,20,34,19.30
2014,10,27,20,35,19.30
2014,10,27,20,36,11.30
2014,10,27,20,37,17.70
2014,10,27,20,38,20.90
2014,10,27,20,39,25.70
2014,10,27,20,40,20.90
2014,10,27,20,41,22.50
2014,10,27,20,42,16.10
2014,10,27,20,43,22.50
2014,10,27,20,44,16.10
2014,10,27,20,45,14.50
2014,10,27,20,46,19.30
2014,10,27,20,47,20.90
2014,10,27,20,48,17.70
2014,10,27,20,49,27.40
2014,10,27,20,50,25.70
2014,10,27,20,51,19.30
2014,10,27,20,52,30.60
2014,10,27,20,53,20.90
2014,10,27,20,54,29.00
2014,10,27,20,55,25.70
2014,10,27,20,56,29.00
2014,10,27,20,57,32.20
2014,10,27,20,58,32.20
2014,10,27,20,59,24.20
2014,10,27,21,00,22.50
2014,10,27,21,01,33.80
2014,10,27,21,02,33.80
2014,10,27,21,03,25.70
2014,10,27,21,04,29.00
2014,10,27,21,05,32.20
2014,10,27,21,06,25.70
2014,10,27,21,07,19.30
2014,10,27,21,08,9.60
2014,10,27,21,09,11.30
2014,10,27,21,10,24.20
2014,10,27,21,11,22.50
2014,10,27,21,12,30.60
2014,10,27,21,13,19.30
2014,10,27,21,14,16.10
2014,10,27,21,15,17.70
2014,10,27,21,16,22.50
2014,10,27,21,17,14.50
2014,10,27,21,18,19.30
2014,10,27,21,19,11.30
2014,10,27,21,20,24.20
2014,10,27,21,21,19.30
2014,10,27,21,22,19.30
2014,10,27,21,23,22.50
2014,10,27,21,24,22.50
2014,10,27,21,25,22.50
2014,10,27,21,26,19.30
2014,10,27,21,27,17.70
2014,10,27,21,28,30.60
2014,10,27,21,29,32.20
2014,10,27,21,30,19.30
2014,10,27,21,31,19.30
2014,10,27,21,32,27.40
2014,10,27,21,33,22.50
2014,10,27,21,34,20.90
2014,10,27,21,35,19.30
2014,10,27,21,36,24.20
2014,10,27,21,37,24.20
2014,10,27,21,38,17.70
2014,10,27,21,39,16.10
2014,10,27,21,40,24.20
2014,10,27,21,41,22.50
2014,10,27,21,42,25.70
2014,10,27,21,43,24.20
2014,10,27,21,44,20.90
2014,10,27,21,45,19.30
2014,10,27,21,46,30.60
2014,10,27,21,47,29.00
2014,10,27,21,48,25.70
2014,10,27,21,49,25.70
2014,10,27,21,50,27.40
2014,10,27,21,51,27.40
2014,10,27,21,52,33.80
2014,10,27,21,53,24.20
2014,10,27,21,54,24.20
2014,10,27,21,55,19.30
2014,10,27,21,56,25.70
2014,10,27,21,57,20.90
2014,10,27,21,58,22.50
2014,10,27,21,59,20.90
2014,10,27,22,00,24.20
2014,10,27,22,01,24.20
2014,10,27,22,02,22.50
2014,10,27,22,03,27.40
2014,10,27,22,04,24.20
2014,10,27,22,05,19.30
2014,10,27,22,06,24.20
2014,10,27,22,07,16.10
2014,10,27,22,08,14.50
2014,10,27,22,09,20.90
2014,10,27,22,10,17.70
2014,10,27,22,11,29.00
2014,10,27,22,12,19.30
2014,10,27,22,13,19.30
2014,10,27,22,14,24.20
2014,10,27,22,15,16.10
2014,10,27,22,16,22.50
2014,10,27,22,17,22.50
2014,10,27,22,18,16.10
2014,10,27,22,19,22.50
2014,10,27,22,20,17.70
2014,10,27,22,21,22.50
2014,10,27,22,22,22.50
2014,10,27,22,23,27.40
2014,10,27,22,24,22.50
2014,10,27,22,25,32.20
2014,10,27,22,26,24.20
2014,10,27,22,27,33.80
2014,10,27,22,28,30.60
2014,10,27,22,29,22.50
2014,10,27,22,30,37.00
2014,10,27,22,31,27.40
2014,10,27,22,32,19.30
2014,10,27,22,33,35.40
2014,10,27,22,34,30.60
2014,10,27,22,35,33.80
2014,10,27,22,36,24.20
2014,10,27,22,37,25.70
2014,10,27,22,38,30.60
2014,10,27,22,39,30.60
2014,10,27,22,40,24.20
2014,10,27,22,41,24.20
2014,10,27,22,42,19.30
2014,10,27,22,43,20.90
2014,10,27,22,44,33.80
2014,10,27,22,45,19.30
2014,10,27,22,46,25.70
2014,10,27,22,47,25.70
2014,10,27,22,48,22.50
2014,10,27,22,49,32.20
2014,10,27,22,50,29.00
2014,10,27,22,51,20.90
2014,10,27,22,52,29.00
2014,10,27,22,53,27.40
2014,10,27,22,54,30.60
2014,10,27,22,55,24.20
2014,10,27,22,56,32.20
2014,10,27,22,57,29.00
2014,10,27,22,58,24.20
2014,10,27,22,59,14.50
2014,10,27,23,00,32.20
2014,10,27,23,01,29.00
2014,10,27,23,02,20.90
2014,10,27,23,03,19.30
2014,10,27,23,04,22.50
2014,10,27,23,05,20.90
2014,10,27,23,06,17.70
2014,10,27,23,07,16.10
2014,10,27,23,08,22.50
2014,10,27,23,09,14.50
2014,10,27,23,10,17.70
2014,10,27,23,11,20.90
2014,10,27,23,12,16.10
2014,10,27,23,13,16.10
2014,10,27,23,14,19.30
2014,10,27,23,15,30.60
2014,10,27,23,16,25.70
2014,10,27,23,17,19.30
2014,10,27,23,18,19.30
2014,10,27,23,19,32.20
2014,10,27,23,20,32.20
2014,10,27,23,21,17.70
2014,10,27,23,22,20.90
2014,10,27,23,23,19.30
2014,10,27,23,24,17.70
2014,10,27,23,25,24.20
2014,10,27,23,26,24.20
2014,10,27,23,27,16.10
2014,10,27,23,28,14.50
2014,10,27,23,29,22.50
2014,10,27,23,30,17.70
2014,10,27,23,31,19.30
2014,10,27,23,32,19.30
2014,10,27,23,33,11.30
2014,10,27,23,34,16.10
2014,10,27,23,35,20.90
2014,10,27,23,36,22.50
2014,10,27,23,37,20.90
2014,10,27,23,38,20.90
2014,10,27,23,39,24.20
2014,10,27,23,40,27.40
2014,10,27,23,41,32.20
2014,10,27,23,42,20.90
2014,10,27,23,43,29.00
2014,10,27,23,44,20.90
2014,10,27,23,45,19.30
2014,10,27,23,46,19.30
2014,10,27,23,47,17.70
2014,10,27,23,48,19.30
2014,10,27,23,49,19.30
2014,10,27,23,50,16.10
2014,10,27,23,51,17.70
2014,10,27,23,52,24.20
2014,10,27,23,53,25.70
2014,10,27,23,54,17.70
2014,10,27,23,55,20.90
2014,10,27,23,56,24.20
2014,10,27,23,57,17.70
2014,10,27,23,58,12.90
2014,10,27,23,59,25.70
